Main page
METAR-TAF:

METAR-TAF

Airports :

Paro Airport

Thimphu, India

latitude: 27-24-32N, longitude: 89-25-14E, elevation: 2235 m

Current weather observation

The report was made 25 minutes ago, at 09:00 UTC
Wind 15 kt from the South/Southeast
Temperature 22°C
Humidity 31%
Pressure 1020 hPa
Visibility 10 km or more
Few clouds at a height of 4000 ft
Broken clouds at a height of 8000 ft

METAR: VQPR 130900Z 15015KT 9999 FEW040 BKN080 22/04 Q1020

Time: 15:25 (09:25 UTC)


TAF: missing

Weather observations and forecasts of more than 4000 airports (METAR and TAF reports).

The available stations are represented by yellow and red dots on the map.

Hover mouse over dot to see the name of the station.

Then click to see weather observations and forecasts.

To change the map : click on the green buttons with a black cross to zoom in, on the green button with a dash to zoom out, or on the green arrows for adjacent maps.


METAR-TAF: